Location: Ciserano
(45.5833°N, 9.6000°E)
Time: 08:15:33
(UTC+00:00)

Cosmos 1295 Rocket - Pass Details

Date: 24 April 2021
Orbit: 944 x 993 km, 82.9° (Epoch: 13 May)

Event Time Altitude Azimuth Distance (km) Brightness Sun altitude
Rises 01:32:15 0° 332° (NNW) 3,689 7.9 -24.3°
Reaches altitude 10° 01:37:07 10° 298° (WNW) 2,745 6.8 -23.8°
Enters shadow 01:38:30 11° 286° (WNW) 2,682 6.6 -23.7°
